Weather History for Colby, KS

Change the Weather History Date:

Wednesday, November 21, 2012

  Actual Average (KGLD) Record (KGLD)
Temperature  
Mean Temperature 52 °F 36 °F  
Max Temperature 71 °F 49 °F 75 °F (2012)
Min Temperature 32 °F 23 °F 4 °F (1929)
Degree Days  
Heating Degree Days 14 29  
Month to date heating degree days 501  
Since 1 July heating degree days 1041  
Cooling Degree Days 0 0  
Month to date cooling degree days 0  
Year to date cooling degree days 941  
Growing Degree Days 2 (Base 50)    
Moisture  
Dew Point 28 °F    
Average Humidity 48    
Maximum Humidity 75    
Minimum Humidity 21    
Precipitation  
Precipitation 0.00 in 0.02 in 0.50 in (1942)
Month to date precipitation 0.54  
Year to date precipitation 19.03  
Snow  
Snow - 0.20 in - ()
Month to date snowfall 3.0  
Since 1 July snowfall 5.6  
Since 1 September snowfall 5.6  
Snow Depth -    
Sea Level Pressure  
Sea Level Pressure 29.95 in    
Wind  
Wind Speed 9 mph ()    
Max Wind Speed 18 mph    
Max Gust Speed 24 mph    
Visibility 10.0 miles    
Events      
T = Trace of Precipitation, MM = Missing Value Source: Averaged Metar Reports

Daily Weather History Graph

Daily Weather History Graph

Search for Another Location

Airport:

Trip Planner

Search our weather history database for the weather conditions in past years. The results will help you decide how hot, cold, wet, or windy it might be!

Date:

Astronomy

Nov. 21, 2012 Rise Set
Actual Time 7:35 AM CST 5:24 PM CST
Civil Twilight 7:06 AM CST 5:53 PM CST
Nautical Twilight 6:33 AM CST 6:26 PM CST
Astronomical Twilight 6:01 AM CST 6:58 PM CST
Moon 1:40 PM CST (11/21) 12:58 AM CST (11/21)
Length of Visible Light 10h 47m
Length of Day
9h 49m
First Quarter, 62% of the Moon is Illuminated
Nov 21
First Quarter
Nov 28
Full
Dec 6
Last Quarter
Dec 13
New
Dec 19
First Quarter

Hourly Weather History & Observations

Time (CST) Temp. Windchill Dew Point Humidity Pressure Visibility Wind Dir Wind Speed Gust Speed Precip Events Conditions
12:15 AM 42.8 °F 37.0 °F 32.0 °F 66% 30.12 in 10.0 mi SSW 10.4 mph - N/A   Clear
12:35 AM 42.8 °F 37.0 °F 32.0 °F 66% 30.12 in 10.0 mi SSW 10.4 mph - N/A   Clear
12:55 AM 42.8 °F 37.0 °F 30.2 °F 61% 30.11 in 10.0 mi SSW 10.4 mph - N/A   Clear
1:15 AM 42.8 °F 37.5 °F 30.2 °F 61% 30.10 in 10.0 mi SSW 9.2 mph - N/A   Clear
1:35 AM 42.8 °F 38.0 °F 30.2 °F 61% 30.09 in 10.0 mi SSW 8.1 mph - N/A   Clear
1:55 AM 41.0 °F 36.4 °F 30.2 °F 65% 30.09 in 10.0 mi South 6.9 mph - N/A   Clear
2:15 AM 41.0 °F 35.2 °F 30.2 °F 65% 30.09 in 10.0 mi SSW 9.2 mph - N/A   Clear
2:35 AM 41.0 °F 34.3 °F 30.2 °F 65% 30.08 in 10.0 mi SSW 11.5 mph - N/A   Clear
2:55 AM 42.8 °F 36.2 °F 30.2 °F 61% 30.07 in 10.0 mi SSW 12.7 mph - N/A   Clear
3:15 AM 42.8 °F 36.6 °F 30.2 °F 61% 30.07 in 10.0 mi SSW 11.5 mph 16.1 mph N/A   Clear
3:35 AM 41.0 °F 35.2 °F 30.2 °F 65% 30.06 in 10.0 mi South 9.2 mph - N/A   Clear
3:55 AM 42.8 °F 37.5 °F 30.2 °F 61% 30.05 in 10.0 mi SSW 9.2 mph - N/A   Clear
4:15 AM 41.0 °F 35.2 °F 30.2 °F 65% 30.04 in 10.0 mi SSW 9.2 mph - N/A   Clear
4:35 AM 41.0 °F 34.3 °F 30.2 °F 65% 30.04 in 10.0 mi South 11.5 mph - N/A   Clear
4:55 AM 42.8 °F 36.2 °F 28.4 °F 57% 30.03 in 10.0 mi South 12.7 mph - N/A   Clear
5:15 AM 41.0 °F 34.7 °F 28.4 °F 61% 30.03 in 10.0 mi South 10.4 mph - N/A   Clear
5:35 AM 39.2 °F 32.5 °F 28.4 °F 65% 30.03 in 10.0 mi SSW 10.4 mph - N/A   Clear
5:55 AM 37.4 °F 30.8 °F 26.6 °F 65% 30.02 in 10.0 mi SW 9.2 mph - N/A   Clear
6:15 AM 35.6 °F 28.6 °F 26.6 °F 70% 30.02 in 10.0 mi SSW 9.2 mph - N/A   Clear
6:35 AM 33.8 °F 25.8 °F 26.6 °F 75% 30.02 in 10.0 mi SW 10.4 mph - N/A   Clear
6:55 AM 33.8 °F 26.4 °F 26.6 °F 75% 30.01 in 10.0 mi SSW 9.2 mph - N/A   Clear
7:15 AM 32.0 °F 24.8 °F 24.8 °F 75% 30.01 in 10.0 mi SW 8.1 mph - N/A   Clear
7:35 AM 32.0 °F 24.2 °F 24.8 °F 75% 30.02 in 10.0 mi SW 9.2 mph - N/A   Clear
7:55 AM 32.0 °F 23.6 °F 24.8 °F 75% 30.02 in 10.0 mi SW 10.4 mph - N/A   Clear
8:15 AM 35.6 °F 29.2 °F 26.6 °F 70% 30.01 in 10.0 mi SW 8.1 mph - N/A   Clear
8:35 AM 37.4 °F 31.4 °F 26.6 °F 65% 30.01 in 10.0 mi WSW 8.1 mph - N/A   Clear
8:55 AM 41.0 °F 36.4 °F 26.6 °F 57% 30.02 in 10.0 mi WSW 6.9 mph - N/A   Clear
9:15 AM 42.8 °F 40.1 °F 26.6 °F 53% 30.01 in 10.0 mi WSW 4.6 mph - N/A   Clear
9:35 AM 44.6 °F 40.7 °F 26.6 °F 49% 30.01 in 10.0 mi SW 6.9 mph - N/A   Clear
9:55 AM 48.2 °F - 26.6 °F 43% 30.01 in 10.0 mi SW 8.1 mph - N/A   Clear
10:15 AM 51.8 °F - 26.6 °F 38% 30.01 in 10.0 mi SW 11.5 mph - N/A   Clear
10:35 AM 53.6 °F - 26.6 °F 35% 30.00 in 10.0 mi SSW 15.0 mph 18.4 mph N/A   Clear
10:55 AM 55.4 °F - 26.6 °F 33% 29.99 in 10.0 mi SSW 12.7 mph - N/A   Clear
11:15 AM 59.0 °F - 28.4 °F 31% 29.98 in 10.0 mi South 11.5 mph - N/A   Clear
11:35 AM 60.8 °F - 28.4 °F 29% 29.96 in 10.0 mi SSW 11.5 mph - N/A   Clear
11:55 AM 62.6 °F - 28.4 °F 27% 29.96 in 10.0 mi South 13.8 mph - N/A   Clear
12:15 PM 64.4 °F - 28.4 °F 26% 29.95 in 10.0 mi South 15.0 mph - N/A   Clear
12:55 PM 66.2 °F - 30.2 °F 26% 29.93 in 10.0 mi South 13.8 mph - N/A   Clear
1:15 PM 68.0 °F - 30.2 °F 24% 29.92 in 10.0 mi SSW 18.4 mph 24.2 mph N/A   Clear
1:35 PM 68.0 °F - 30.2 °F 24% 29.91 in 10.0 mi South 15.0 mph 21.9 mph N/A   Clear
1:55 PM 71.6 °F - 30.2 °F 22% 29.90 in 10.0 mi South 16.1 mph 24.2 mph N/A   Clear
2:15 PM 71.6 °F - 30.2 °F 22% 29.88 in 10.0 mi South 16.1 mph - N/A   Clear
2:35 PM 71.6 °F - 30.2 °F 22% 29.87 in 10.0 mi South 15.0 mph - N/A   Clear
2:55 PM 71.6 °F - 30.2 °F 22% 29.87 in 10.0 mi South 12.7 mph 21.9 mph N/A   Clear
3:15 PM 71.6 °F - 30.2 °F 22% 29.87 in 10.0 mi South 15.0 mph 19.6 mph N/A   Clear
3:35 PM 71.6 °F - 30.2 °F 22% 29.86 in 10.0 mi South 12.7 mph - N/A   Clear
3:55 PM 71.6 °F - 30.2 °F 22% 29.86 in 10.0 mi South 11.5 mph 20.7 mph N/A   Clear
4:15 PM 71.6 °F - 30.2 °F 22% 29.85 in 10.0 mi South 11.5 mph - N/A   Clear
4:35 PM 71.6 °F - 30.2 °F 22% 29.85 in 10.0 mi South 10.4 mph - N/A   Clear
4:55 PM 69.8 °F - 28.4 °F 21% 29.85 in 10.0 mi South 15.0 mph 21.9 mph N/A   Clear
5:15 PM 66.2 °F - 28.4 °F 24% 29.85 in 10.0 mi SSW 9.2 mph - N/A   Clear
5:35 PM 62.6 °F - 28.4 °F 27% 29.85 in 10.0 mi SSW 8.1 mph - N/A   Clear
5:55 PM 59.0 °F - 26.6 °F 29% 29.84 in 10.0 mi SSW 8.1 mph - N/A   Clear
6:15 PM 53.6 °F - 26.6 °F 35% 29.84 in 10.0 mi SSW 6.9 mph - N/A   Clear
6:35 PM 50.0 °F - 23.0 °F 35% 29.84 in 10.0 mi SSW 5.8 mph - N/A   Clear
6:55 PM 53.6 °F - 26.6 °F 35% 29.84 in 10.0 mi SSW 9.2 mph - N/A   Clear
7:15 PM 55.4 °F - 26.6 °F 33% 29.84 in 10.0 mi SSW 9.2 mph - N/A   Clear
7:35 PM 53.6 °F - 26.6 °F 35% 29.84 in 10.0 mi SSW 10.4 mph - N/A   Clear
7:55 PM 51.8 °F - 26.6 °F 38% 29.84 in 10.0 mi SW 6.9 mph - N/A   Clear
8:15 PM 50.0 °F - 24.8 °F 37% 29.84 in 10.0 mi SSW 9.2 mph - N/A   Clear
8:35 PM 46.4 °F 43.5 °F 23.0 °F 40% 29.84 in 10.0 mi SW 5.8 mph - N/A   Clear
8:55 PM 46.4 °F 41.9 °F 24.8 °F 43% 29.84 in 10.0 mi SSW 9.2 mph - N/A   Clear
9:15 PM 41.0 °F 36.4 °F 23.0 °F 49% 29.84 in 10.0 mi SW 6.9 mph - N/A   Clear
9:35 PM 42.8 °F 38.0 °F 26.6 °F 53% 29.84 in 10.0 mi SSW 8.1 mph - N/A   Clear
9:55 PM 41.0 °F 35.8 °F 26.6 °F 57% 29.83 in 10.0 mi SW 8.1 mph - N/A   Clear
10:15 PM 39.2 °F 34.2 °F 26.6 °F 61% 29.82 in 10.0 mi SSW 6.9 mph - N/A   Clear
10:35 PM 41.0 °F 38.0 °F 28.4 °F 61% 29.82 in 10.0 mi SW 4.6 mph - N/A   Clear
10:55 PM 41.0 °F 37.1 °F 30.2 °F 65% 29.80 in 10.0 mi SSW 5.8 mph - N/A   Clear
11:15 PM 39.2 °F 35.0 °F 30.2 °F 70% 29.80 in 10.0 mi SW 5.8 mph - N/A   Clear
11:35 PM 41.0 °F 35.8 °F 32.0 °F 70% 29.80 in 10.0 mi SSW 8.1 mph - N/A   Clear
11:55 PM 42.8 °F 40.1 °F 32.0 °F 66% 29.80 in 10.0 mi SSW 4.6 mph - N/A   Clear